Location: Unspecified
(0.0000°N, 0.0000°E)
Time: 21:01:23
(UTC+00:00)

Explorer 7 - Pass Details

Date: 25 June 2025
Orbit: 444 x 569 km, 50.3° (Epoch: 12 July)

Event Time Altitude Azimuth Distance (km) Brightness Sun altitude
Rises 07:49:21 0° 181° (S) 2,764 10.1 24.3°
Reaches altitude 10° 07:53:24 10° 144° (SE) 1,850 9.7 25.2°
Maximum altitude 07:54:29 11° 129° (SE) 1,790 9.9 25.5°
Drops below altitude 10° 07:55:34 10° 114° (ESE) 1,837 10.2 25.7°
Sets 07:59:31 0° 76° (ENE) 2,700 11.6 26.6°
